Location: McFarlands Corners
(41.4117°N, 81.3382°W)
Time: 02:26:00
(UTC+00:00)

Transit 4A - Pass Details

Date: 25 February 2026
Orbit: 863 x 978 km, 66.8° (Epoch: 13 March)

Event Time Altitude Azimuth Distance (km) Brightness Sun altitude
Rises 13:47:36 0° 339° (NNW) 3,596 10.5 17.0°
Reaches altitude 10° 13:52:25 10° 12° (NNE) 2,679 10.2 17.8°
Maximum altitude 13:54:19 11° 30° (NNE) 2,588 10.3 18.1°
Drops below altitude 10° 13:56:15 10° 48° (NE) 2,697 10.6 18.4°
Sets 14:01:08 0° 81° (E) 3,661 11.8 19.2°
